Boulder Muni, Boulder, CO, CO

7:20 PM MDT on April 30, 2017 (GMT -0600)
Boulder Muni, Boulder, CO

Weather History for KBDU - January, 2014

Change the Weather History Date:

Wednesday, January 22, 2014

  Actual Average Record
Temperature  
Mean Temperature 34 °F -  
Max Temperature 42 °F - 48 °F (2016)
Min Temperature 26 °F - 14 °F (2015)
Degree Days  
Heating Degree Days 31    
Month to date heating degree days  
Cooling Degree Days 0    
Month to date cooling degree days  
Moisture  
Dew Point 14 °F    
Average Humidity 48    
Maximum Humidity 100    
Minimum Humidity 30    
Precipitation  
Precipitation 0.03 in - 0.03 in (2014)
Sea Level Pressure  
Sea Level Pressure 30.12 in    
Wind  
Wind Speed 4 mph (NE)    
Max Wind Speed 14 mph    
Max Gust Speed 17 mph    
Visibility 10 miles    
Events Snow    
T = Trace of Precipitation, MM = Missing Value Source: NWS Daily Summary

Daily Weather History Graph

Daily Weather History Graph

Search for Another Location

Airport or City:

Trip Planner

Search our weather history database for the weather conditions in past years. The results will help you decide how hot, cold, wet, or windy it might be!

Date:

Astronomy

Jan. 22, 2014 Rise Set
Actual Time 7:17 AM MST 5:08 PM MST
Civil Twilight 6:48 AM MST 5:37 PM MST
Nautical Twilight 6:15 AM MST 6:10 PM MST
Astronomical Twilight 5:42 AM MST 6:42 PM MST
Moon 11:43 PM MST (1/22) 10:19 AM MST (1/22)
Length of Visible Light 10h 49m
Length of Day
9h 50m
Waning Gibbous, 65% of the Moon is Illuminated
Jan 22
Waning Gibbous
Jan 23
Last Quarter
Jan 30
New
Feb 6
First Quarter
Feb 14
Full

Hourly Weather History & Observations

Time (MST) Temp. Windchill Dew Point Humidity Pressure Visibility Wind Dir Wind Speed Gust Speed Precip Events Conditions
12:16 AM 35.6 °F 32.8 °F 8.6 °F 33% 30.12 in 10.0 mi ENE 3.5 mph - N/A   Clear
12:36 AM 32.0 °F 28.7 °F 8.6 °F 38% 30.12 in 10.0 mi SW 3.5 mph - N/A   Clear
12:56 AM 32.0 °F 28.7 °F 8.6 °F 38% 30.11 in 10.0 mi ESE 3.5 mph - N/A   Clear
1:16 AM 32.0 °F 28.7 °F 6.8 °F 35% 30.10 in 10.0 mi South 3.5 mph - N/A   Clear
1:36 AM 32.0 °F - 5.0 °F 32% 30.10 in 10.0 mi Calm Calm - N/A   Clear
1:56 AM 32.0 °F 28.7 °F 3.2 °F 30% 30.10 in 10.0 mi South 3.5 mph - N/A   Clear
2:16 AM 32.0 °F 28.7 °F 3.2 °F 30% 30.10 in 10.0 mi South 3.5 mph - N/A   Clear
2:36 AM 32.0 °F - 5.0 °F 32% 30.09 in 10.0 mi Calm Calm - N/A   Clear
2:56 AM 28.4 °F - 5.0 °F 37% 30.09 in 10.0 mi Calm Calm - N/A   Clear
3:16 AM 30.2 °F - 6.8 °F 37% 30.09 in 10.0 mi Calm Calm - N/A   Clear
3:36 AM 30.2 °F 25.4 °F 8.6 °F 40% 30.07 in 10.0 mi WSW 4.6 mph - N/A   Clear
3:56 AM 30.2 °F - 8.6 °F 40% 30.07 in 10.0 mi Calm Calm - N/A   Clear
4:16 AM 30.2 °F 26.7 °F 8.6 °F 40% 30.07 in 10.0 mi North 3.5 mph - N/A   Clear
4:36 AM 30.2 °F 25.4 °F 8.6 °F 40% 30.07 in 10.0 mi NNE 4.6 mph - N/A   Clear
4:56 AM 30.2 °F 25.4 °F 8.6 °F 40% 30.09 in 10.0 mi NNW 4.6 mph - N/A   Clear
5:16 AM 30.2 °F 24.3 °F 8.6 °F 40% 30.10 in 10.0 mi NNW 5.8 mph - N/A   Clear
5:36 AM 30.2 °F 25.4 °F 8.6 °F 40% 30.10 in 10.0 mi NNW 4.6 mph - N/A   Clear
5:56 AM 30.2 °F - 10.4 °F 44% 30.11 in 10.0 mi Calm Calm - N/A   Clear
6:16 AM 28.4 °F 24.6 °F 10.4 °F 47% 30.11 in 10.0 mi NNW 3.5 mph - N/A   Clear
6:36 AM 28.4 °F 21.2 °F 12.2 °F 51% 30.11 in 10.0 mi NNW 6.9 mph - N/A   Clear
6:56 AM 26.6 °F 20.0 °F 12.2 °F 55% 30.12 in 10.0 mi NNW 5.8 mph - N/A   Clear
7:16 AM 26.6 °F 20.0 °F 12.2 °F 55% 30.12 in 10.0 mi NNW 5.8 mph - N/A   Clear
7:36 AM 28.4 °F - 12.2 °F 51% 30.12 in 10.0 mi Calm Calm - N/A   Clear
7:56 AM 28.4 °F - 12.2 °F 51% 30.13 in 10.0 mi Calm Calm - N/A   Clear
8:16 AM 30.2 °F - 14.0 °F 51% 30.14 in 10.0 mi Calm Calm - N/A   Clear
8:36 AM 32.0 °F 28.7 °F 14.0 °F 48% 30.14 in 10.0 mi West 3.5 mph - N/A   Clear
8:56 AM 32.0 °F 28.7 °F 14.0 °F 48% 30.14 in 10.0 mi NW 3.5 mph - N/A   Clear
9:16 AM 32.0 °F - 12.2 °F 44% 30.14 in 10.0 mi Calm Calm - N/A   Clear
9:36 AM 33.8 °F 28.6 °F 14.0 °F 44% 30.14 in 10.0 mi North 5.8 mph - N/A   Clear
9:56 AM 33.8 °F 28.6 °F 12.2 °F 41% 30.14 in 10.0 mi North 5.8 mph - N/A   Clear
10:16 AM 35.6 °F - 14.0 °F 41% 30.14 in 10.0 mi Calm Calm - N/A   Clear
10:36 AM 35.6 °F 31.7 °F 14.0 °F 41% 30.14 in 10.0 mi NNE 4.6 mph - N/A   Clear
10:56 AM 37.4 °F 34.9 °F 14.0 °F 38% 30.14 in 10.0 mi East 3.5 mph - N/A   Clear
11:16 AM 37.4 °F 34.9 °F 14.0 °F 38% 30.13 in 10.0 mi ENE 3.5 mph - N/A   Clear
11:36 AM 37.4 °F - 14.0 °F 38% 30.11 in 10.0 mi Calm Calm - N/A   Clear
11:56 AM 37.4 °F - 14.0 °F 38% 30.10 in 10.0 mi Calm Calm - N/A   Clear
12:16 PM 39.2 °F 35.0 °F 14.0 °F 36% 30.09 in 10.0 mi ESE 5.8 mph - N/A   Clear
12:36 PM 41.0 °F 35.8 °F 15.8 °F 36% 30.07 in 10.0 mi SE 8.1 mph - N/A   Clear
12:56 PM 41.0 °F 36.4 °F 14.0 °F 33% 30.06 in 10.0 mi SSE 6.9 mph - N/A   Clear
1:16 PM 41.0 °F 39.0 °F 14.0 °F 33% 30.04 in 10.0 mi South 3.5 mph - N/A   Clear
1:36 PM 41.0 °F 38.0 °F 14.0 °F 33% 30.04 in 10.0 mi SSE 4.6 mph - N/A   Clear
1:56 PM 41.0 °F 38.0 °F 14.0 °F 33% 30.03 in 10.0 mi SE 4.6 mph - N/A   Clear
2:16 PM 42.8 °F 39.3 °F 17.6 °F 36% 30.03 in 10.0 mi ESE 5.8 mph - N/A   Clear
2:36 PM 42.8 °F 39.3 °F 17.6 °F 36% 30.04 in 10.0 mi East 5.8 mph - N/A   Clear
2:56 PM 42.8 °F 38.0 °F 17.6 °F 36% 30.04 in 10.0 mi East 8.1 mph - N/A   Clear
3:16 PM 41.0 °F 35.2 °F 17.6 °F 39% 30.05 in 10.0 mi NE 9.2 mph - N/A   Clear
3:36 PM 41.0 °F 35.8 °F 17.6 °F 39% 30.06 in 10.0 mi ENE 8.1 mph - N/A   Clear
3:56 PM 41.0 °F 35.2 °F 17.6 °F 39% 30.07 in 10.0 mi NE 9.2 mph - N/A   Clear
4:16 PM 37.4 °F 32.8 °F 17.6 °F 45% 30.07 in 10.0 mi ENE 5.8 mph - N/A   Clear
4:36 PM 37.4 °F 32.8 °F 19.4 °F 48% 30.09 in 10.0 mi NE 5.8 mph - N/A   Mostly Cloudy
4:56 PM 37.4 °F 33.8 °F 19.4 °F 48% 30.09 in 10.0 mi NE 4.6 mph - N/A   Overcast
5:16 PM 37.4 °F - 19.4 °F 48% 30.09 in 10.0 mi Calm Calm - N/A   Overcast
5:36 PM 35.6 °F 26.6 °F 19.4 °F 52% 30.11 in 10.0 mi NE 13.8 mph 17.3 mph N/A   Overcast
5:56 PM 33.8 °F 27.0 °F 17.6 °F 52% 30.12 in 10.0 mi ENE 8.1 mph - N/A   Overcast
6:16 PM 33.8 °F 27.0 °F 17.6 °F 52% 30.14 in 10.0 mi NE 8.1 mph - N/A   Overcast
6:36 PM 33.8 °F 29.6 °F 15.8 °F 48% 30.14 in 10.0 mi ENE 4.6 mph - N/A   Overcast
6:56 PM 32.0 °F 24.2 °F 14.0 °F 48% 30.16 in 10.0 mi ENE 9.2 mph - N/A   Overcast
7:16 PM 32.0 °F 23.0 °F 14.0 °F 48% 30.16 in 10.0 mi ENE 11.5 mph - N/A   Overcast
7:36 PM 32.0 °F 24.2 °F 15.8 °F 51% 30.18 in 10.0 mi NE 9.2 mph - N/A   Overcast
7:56 PM 32.0 °F 24.8 °F 17.6 °F 55% 30.18 in 10.0 mi NE 8.1 mph - N/A   Overcast
8:16 PM 30.2 °F 22.6 °F 19.4 °F 64% 30.18 in 10.0 mi ENE 8.1 mph - N/A   Overcast
8:36 PM 30.2 °F 22.6 °F 19.4 °F 64% 30.18 in 10.0 mi ENE 8.1 mph - N/A   Overcast
8:56 PM 30.2 °F 23.4 °F 19.4 °F 64% 30.20 in 10.0 mi ENE 6.9 mph - N/A   Overcast
9:16 PM 30.2 °F - 21.2 °F 69% 30.20 in 10.0 mi Calm Calm - N/A   Overcast
9:36 PM 28.4 °F 23.3 °F 21.2 °F 74% 30.20 in 10.0 mi NE 4.6 mph - N/A   Overcast
9:56 PM 28.4 °F 23.3 °F 21.2 °F 74% 30.21 in 10.0 mi NNE 4.6 mph - N/A   Overcast
10:16 PM 28.4 °F 20.4 °F 21.2 °F 74% 30.21 in 10.0 mi NE 8.1 mph - N/A Snow Light Snow
10:36 PM 28.4 °F 22.2 °F 21.2 °F 74% 30.22 in 10.0 mi NE 5.8 mph - N/A Snow Light Snow
10:56 PM 28.4 °F 23.3 °F 24.8 °F 86% 30.23 in 2.0 mi NE 4.6 mph - N/A Snow Light Snow
11:16 PM 26.6 °F 22.6 °F 26.6 °F 100% 30.23 in 1.0 mi NE 3.5 mph - N/A Snow Snow
11:36 PM 26.6 °F 20.0 °F 26.6 °F 100% 30.24 in 0.8 mi NNE 5.8 mph - 0.02 in Snow Snow
11:56 PM 26.6 °F 18.2 °F 26.6 °F 100% 30.24 in 1.2 mi NE 8.1 mph - 0.03 in Snow Light Snow